When you browse on this site, cookies collect data to enhance your experience and personalize the content and advertising you see.
Visit our Privacy Policy to learn more. By continuing to use the site, you agree to this use of cookies and data.
  • en France
  • Liste des pays
  • À 7 jours
  • Température de l'eau
  • Carte satellitaire
  • Carte météo
  • Widgets météo
  • user-avatar
    Se connecter

    Météo par heure à Homs

    Ce jour, 16 Juin, Dimanche

    Heure Température Précipitation Vent Pression Humidité
    00:00 +22°C° 0 mm 3 m/s 711 mmHg 78%
    01:00 +21°C° 0 mm 3 m/s 711 mmHg 80%
    02:00 +21°C° 0 mm 2 m/s 711 mmHg 82%
    03:00 +21°C° 0 mm 2 m/s 711 mmHg 80%
    04:00 +21°C° 0 mm 2 m/s 711 mmHg 79%
    05:00 +21°C° 0 mm 2 m/s 711 mmHg 78%
    06:00 +24°C° 0 mm 2 m/s 712 mmHg 66%
    07:00 +26°C° 0 mm 2 m/s 712 mmHg 55%
    08:00 +28°C° 0 mm 2 m/s 713 mmHg 44%
    09:00 +30°C° 0 mm 3 m/s 713 mmHg 40%
    10:00 +32°C° 0 mm 4 m/s 713 mmHg 37%
    11:00 +33°C° 0 mm 5 m/s 713 mmHg 34%
    12:00 +34°C° 0 mm 6 m/s 712 mmHg 34%
    13:00 +34°C° 0 mm 7 m/s 712 mmHg 34%
    14:00 +34°C° 0 mm 8 m/s 712 mmHg 34%
    15:00 +33°C° 0 mm 9 m/s 712 mmHg 37%
    16:00 +31°C° 0 mm 9 m/s 712 mmHg 40%
    17:00 +29°C° 0 mm 9 m/s 711 mmHg 44%
    18:00 +28°C° 0 mm 8 m/s 711 mmHg 49%
    19:00 +26°C° 0 mm 6 m/s 712 mmHg 55%
    20:00 +25°C° 0 mm 5 m/s 712 mmHg 60%
    21:00 +23°C° 0 mm 4 m/s 712 mmHg 61%
    22:00 +24°C° 0 mm 3 m/s 712 mmHg 62%
    23:00 +24°C° 0 mm 2 m/s 712 mmHg 64%

    Demain, 17 Juin, Lundi

    Heure Température Précipitation Vent Pression Humidité
    00:00 +23°C° 0 mm 2 m/s 712 mmHg 63%
    01:00 +23°C° 0 mm 2 m/s 711 mmHg 63%
    02:00 +23°C° 0 mm 2 m/s 711 mmHg 62%
    03:00 +21°C° 0 mm 2 m/s 711 mmHg 64%
    04:00 +21°C° 0 mm 3 m/s 711 mmHg 67%
    05:00 +21°C° 0 mm 3 m/s 711 mmHg 69%
    06:00 +24°C° 0 mm 3 m/s 712 mmHg 62%
    07:00 +25°C° 0 mm 4 m/s 712 mmHg 54%
    08:00 +27°C° 0 mm 4 m/s 713 mmHg 47%
    09:00 +28°C° 0 mm 5 m/s 713 mmHg 44%
    10:00 +30°C° 0 mm 5 m/s 713 mmHg 41%
    11:00 +32°C° 0 mm 6 m/s 713 mmHg 37%
    12:00 +30°C° 0 mm 7 m/s 713 mmHg 41%
    13:00 +31°C° 0 mm 8 m/s 713 mmHg 45%
    14:00 +31°C° 0 mm 9 m/s 713 mmHg 48%
    15:00 +29°C° 0 mm 9 m/s 712 mmHg 50%
    16:00 +28°C° 0 mm 9 m/s 712 mmHg 52%
    17:00 +27°C° 0 mm 9 m/s 712 mmHg 54%
    18:00 +26°C° 0 mm 9 m/s 712 mmHg 60%
    19:00 +23°C° 0 mm 8 m/s 713 mmHg 66%
    20:00 +22°C° 0 mm 7 m/s 713 mmHg 72%
    21:00 +22°C° 0 mm 7 m/s 713 mmHg 73%
    22:00 +22°C° 0 mm 6 m/s 713 mmHg 73%
    23:00 +21°C° 0 mm 6 m/s 713 mmHg 74%

    Après-demain, 18 Juin, Mardi

    Heure Température Précipitation Vent Pression Humidité
    00:00 +21°C° 0 mm 5 m/s 713 mmHg 76%
    01:00 +21°C° 0 mm 5 m/s 713 mmHg 78%
    02:00 +21°C° 0 mm 4 m/s 713 mmHg 80%
    03:00 +20°C° 0 mm 4 m/s 713 mmHg 81%
    04:00 +20°C° 0 mm 4 m/s 713 mmHg 82%
    05:00 +20°C° 0 mm 3 m/s 713 mmHg 83%
    06:00 +22°C° 0 mm 4 m/s 714 mmHg 71%
    07:00 +25°C° 0 mm 5 m/s 714 mmHg 58%
    08:00 +28°C° 0 mm 6 m/s 715 mmHg 45%
    09:00 +29°C° 0 mm 7 m/s 715 mmHg 42%
    10:00 +31°C° 0 mm 8 m/s 715 mmHg 39%
    11:00 +32°C° 0 mm 9 m/s 715 mmHg 36%
    12:00 +32°C° 0 mm 9 m/s 714 mmHg 37%
    13:00 +32°C° 0 mm 10 m/s 714 mmHg 38%
    14:00 +32°C° 0 mm 10 m/s 714 mmHg 39%
    15:00 +31°C° 0 mm 10 m/s 714 mmHg 42%
    16:00 +29°C° 0 mm 10 m/s 713 mmHg 46%
    17:00 +28°C° 0 mm 10 m/s 713 mmHg 50%
    18:00 +26°C° 0 mm 9 m/s 713 mmHg 60%
    19:00 +24°C° 0 mm 8 m/s 713 mmHg 70%
    20:00 +22°C° 0 mm 7 m/s 714 mmHg 79%
    21:00 +22°C° 0 mm 7 m/s 714 mmHg 81%
    22:00 +22°C° 0 mm 6 m/s 714 mmHg 82%
    23:00 +21°C° 0 mm 6 m/s 714 mmHg 84%

    19 Juin, Mercredi

    Heure Température Précipitation Vent Pression Humidité
    00:00 +21°C° 0 mm 6 m/s 713 mmHg 84%
    01:00 +21°C° 0 mm 5 m/s 713 mmHg 84%
    02:00 +20°C° 0 mm 5 m/s 713 mmHg 84%
    03:00 +20°C° 0 mm 5 m/s 713 mmHg 85%
    04:00 +20°C° 0 mm 4 m/s 713 mmHg 86%
    05:00 +20°C° 0 mm 4 m/s 712 mmHg 87%
    06:00 +22°C° 0 mm 5 m/s 713 mmHg 75%
    07:00 +25°C° 0 mm 5 m/s 713 mmHg 64%
    08:00 +27°C° 0 mm 6 m/s 713 mmHg 53%
    09:00 +28°C° 0 mm 7 m/s 713 mmHg 49%
    10:00 +29°C° 0 mm 8 m/s 713 mmHg 46%
    11:00 +31°C° 0 mm 8 m/s 713 mmHg 42%
    12:00 +31°C° 0 mm 9 m/s 713 mmHg 42%
    13:00 +32°C° 0 mm 9 m/s 713 mmHg 43%
    14:00 +32°C° 0 mm 10 m/s 713 mmHg 43%
    15:00 +31°C° 0 mm 10 m/s 712 mmHg 46%
    16:00 +28°C° 0 mm 11 m/s 712 mmHg 49%
    17:00 +27°C° 0 mm 11 m/s 712 mmHg 51%
    18:00 +26°C° 0 mm 10 m/s 712 mmHg 58%
    19:00 +24°C° 0 mm 9 m/s 712 mmHg 65%
    20:00 +22°C° 0 mm 8 m/s 712 mmHg 72%
    21:00 +22°C° 0 mm 7 m/s 712 mmHg 73%
    22:00 +22°C° 0 mm 6 m/s 712 mmHg 73%
    23:00 +22°C° 0 mm 5 m/s 712 mmHg 73%

    20 Juin, Jeudi

    Heure Température Précipitation Vent Pression Humidité
    00:00 +21°C° 0 mm 5 m/s 712 mmHg 76%
    01:00 +21°C° 0 mm 5 m/s 712 mmHg 78%
    02:00 +21°C° 0 mm 4 m/s 711 mmHg 80%
    03:00 +21°C° 0 mm 4 m/s 711 mmHg 82%
    04:00 +21°C° 0 mm 4 m/s 711 mmHg 84%
    05:00 +21°C° 0 mm 4 m/s 711 mmHg 86%
    06:00 +22°C° 0 mm 5 m/s 712 mmHg 74%
    07:00 +24°C° 0 mm 6 m/s 712 mmHg 63%
    08:00 +27°C° 0 mm 7 m/s 712 mmHg 51%
    09:00 +28°C° 0 mm 8 m/s 712 mmHg 46%
    10:00 +31°C° 0 mm 9 m/s 712 mmHg 42%
    11:00 +32°C° 0 mm 9 m/s 713 mmHg 37%
    12:00 +32°C° 0 mm 10 m/s 712 mmHg 37%
    13:00 +32°C° 0 mm 10 m/s 712 mmHg 37%
    14:00 +32°C° 0 mm 11 m/s 712 mmHg 38%
    15:00 +31°C° 0 mm 11 m/s 712 mmHg 40%
    16:00 +29°C° 0 mm 10 m/s 711 mmHg 43%
    17:00 +27°C° 0 mm 10 m/s 711 mmHg 46%
    18:00 +26°C° 0 mm 10 m/s 711 mmHg 53%
    19:00 +24°C° 0 mm 9 m/s 711 mmHg 61%
    20:00 +22°C° 0 mm 8 m/s 711 mmHg 68%
    21:00 +22°C° 0 mm 7 m/s 711 mmHg 72%
    22:00 +22°C° 0 mm 6 m/s 711 mmHg 75%
    23:00 +21°C° 0 mm 6 m/s 711 mmHg 79%

    21 Juin, Vendredi

    Heure Température Précipitation Vent Pression Humidité
    00:00 +21°C° 0 mm 5 m/s 711 mmHg 80%
    01:00 +21°C° 0 mm 5 m/s 711 mmHg 82%
    02:00 +21°C° 0 mm 5 m/s 711 mmHg 83%
    03:00 +21°C° 0 mm 5 m/s 711 mmHg 83%
    04:00 +21°C° 0 mm 5 m/s 711 mmHg 82%
    05:00 +21°C° 0 mm 4 m/s 711 mmHg 82%
    06:00 +22°C° 0 mm 5 m/s 711 mmHg 74%
    07:00 +24°C° 0 mm 6 m/s 712 mmHg 66%
    08:00 +27°C° 0 mm 7 m/s 712 mmHg 58%
    09:00 +28°C° 0 mm 8 m/s 712 mmHg 54%
    10:00 +29°C° 0 mm 8 m/s 712 mmHg 50%
    11:00 +31°C° 0 mm 8 m/s 712 mmHg 46%
    12:00 +32°C° 0 mm 9 m/s 712 mmHg 45%
    13:00 +32°C° 0 mm 9 m/s 712 mmHg 45%
    14:00 +32°C° 0 mm 10 m/s 712 mmHg 44%
    15:00 +31°C° 0 mm 9 m/s 711 mmHg 47%
    16:00 +29°C° 0 mm 9 m/s 711 mmHg 51%
    17:00 +28°C° 0 mm 9 m/s 711 mmHg 55%
    18:00 +26°C° 0 mm 8 m/s 711 mmHg 62%
    19:00 +24°C° 0 mm 6 m/s 711 mmHg 69%
    20:00 +22°C° 0 mm 5 m/s 711 mmHg 76%
    21:00 +22°C° 0 mm 4 m/s 711 mmHg 78%
    22:00 +22°C° 0 mm 4 m/s 711 mmHg 81%
    23:00 +21°C° 0 mm 3 m/s 711 mmHg 83%
    Voir plus